Cody, WY

9:16 AM MST on February 14, 2016 (GMT -0700)
Yellowstone Regional

Weather History for KCOD - January, 2013

Change the Weather History Date:

Friday, January 11, 2013

  Actual Average (KGEY) Record (KGEY)
Temperature  
Mean Temperature 10 °F 16 °F  
Max Temperature 17 °F 29 °F 50 °F (2006)
Min Temperature 3 °F 4 °F -19 °F (2011)
Degree Days  
Heating Degree Days 55 49  
Month to date heating degree days 539  
Since 1 July heating degree days 3862  
Cooling Degree Days 0 0  
Month to date cooling degree days 0  
Year to date cooling degree days 0  
Moisture  
Dew Point 5 °F    
Average Humidity 90    
Maximum Humidity 100    
Minimum Humidity 79    
Precipitation  
Precipitation 0.00 in 0.00 in 0.14 in (2000)
Month to date precipitation 0.10  
Year to date precipitation 0.10  
Sea Level Pressure  
Sea Level Pressure 29.70 in    
Wind  
Wind Speed 14 mph (North)    
Max Wind Speed 22 mph    
Max Gust Speed 29 mph    
Visibility 2 miles    
Events      
T = Trace of Precipitation, MM = Missing Value Source: NWS Daily Summary

Daily Weather History Graph

Daily Weather History Graph

Search for Another Location

Airport or City:

Trip Planner

Search our weather history database for the weather conditions in past years. The results will help you decide how hot, cold, wet, or windy it might be!

Date:

Astronomy

Jan. 11, 2013 Rise Set
Actual Time 7:50 AM MST 4:57 PM MST
Civil Twilight 7:18 AM MST 5:30 PM MST
Nautical Twilight 6:41 AM MST 6:06 PM MST
Astronomical Twilight 6:06 AM MST 6:41 PM MST
Moon 7:24 AM MST (1/11) 5:22 PM MST (1/11)
Length of Visible Light 10h 12m
Length of Day
9h 06m
Waning Crescent, 0% of the Moon is Illuminated
Jan 11
Waning Crescent
Jan 11
New
Jan 18
First Quarter
Jan 26
Full
Feb 3
Last Quarter

Hourly Weather History & Observations

Time (MST) Temp. Windchill Dew Point Humidity Pressure Visibility Wind Dir Wind Speed Gust Speed Precip Events Conditions
12:15 AM 17.6 °F 3.7 °F 14.0 °F 86% 29.49 in 4.0 mi North 13.8 mph 21.9 mph N/A   Overcast
12:35 AM 15.8 °F 2.1 °F 12.2 °F 86% 29.50 in 7.0 mi North 12.7 mph 18.4 mph N/A   Overcast
12:55 AM 15.8 °F 0.9 °F 12.2 °F 86% 29.50 in 5.0 mi NNW 15.0 mph 23.0 mph N/A   Overcast
1:15 AM 15.8 °F 1.4 °F 12.2 °F 86% 29.50 in 5.0 mi North 13.8 mph 23.0 mph N/A   Overcast
1:35 AM 15.8 °F 1.4 °F 12.2 °F 86% 29.50 in 2.0 mi North 13.8 mph 21.9 mph N/A   Overcast
1:55 AM 14.0 °F -2.5 °F 10.4 °F 86% 29.51 in 1.5 mi North 17.3 mph 23.0 mph N/A   Overcast
2:15 AM 12.2 °F -5.3 °F 10.4 °F 92% 29.52 in 2.5 mi North 18.4 mph - N/A   Overcast
2:35 AM 12.2 °F -4.3 °F 10.4 °F 92% 29.52 in 1.5 mi North 16.1 mph 21.9 mph N/A   Overcast
2:55 AM 12.2 °F -4.8 °F 10.4 °F 92% 29.52 in 1.5 mi North 17.3 mph 25.3 mph N/A   Overcast
3:15 AM 10.4 °F -6.0 °F 8.6 °F 92% 29.53 in 1.2 mi North 15.0 mph 23.0 mph N/A   Overcast
3:35 AM 10.4 °F -7.2 °F 8.6 °F 92% 29.53 in 1.8 mi North 17.3 mph 24.2 mph N/A   Overcast
4:15 AM 10.4 °F -6.6 °F 8.6 °F 92% 29.54 in 1.8 mi North 16.1 mph 21.9 mph N/A   Overcast
4:35 AM 10.4 °F -7.2 °F 8.6 °F 92% 29.54 in 1.5 mi North 17.3 mph 21.9 mph N/A   Overcast
4:55 AM 8.6 °F -9.5 °F 6.8 °F 92% 29.54 in 2.0 mi North 17.3 mph - N/A   Overcast
5:15 AM 8.6 °F -11.4 °F 6.8 °F 92% 29.54 in 2.0 mi North 21.9 mph 27.6 mph N/A   Overcast
5:35 AM 8.6 °F -11.4 °F 6.8 °F 92% 29.54 in 2.0 mi North 21.9 mph 26.5 mph N/A   Overcast
5:55 AM 8.6 °F -9.5 °F 5.0 °F 85% 29.55 in 2.0 mi North 17.3 mph 25.3 mph N/A   Overcast
6:15 AM 6.8 °F -13.4 °F 5.0 °F 92% 29.56 in 1.8 mi North 20.7 mph 27.6 mph N/A   Overcast
6:35 AM 6.8 °F -13.4 °F 5.0 °F 92% 29.57 in 1.8 mi North 20.7 mph 28.8 mph N/A   Overcast
6:55 AM 6.8 °F -10.0 °F 5.0 °F 92% 29.59 in 1.5 mi NNW 13.8 mph 24.2 mph N/A   Overcast
7:55 AM 6.8 °F -13.4 °F 1.4 °F 79% 29.60 in 1.5 mi North 20.7 mph 27.6 mph N/A   Overcast
8:35 AM 5.0 °F -15.7 °F 3.2 °F 92% 29.60 in 1.2 mi North 20.7 mph 28.8 mph N/A   Overcast
8:55 AM 6.8 °F -13.8 °F 3.2 °F 85% 29.58 in 1.5 mi North 21.9 mph 27.6 mph N/A   Overcast
9:15 AM 6.8 °F -12.4 °F 3.2 °F 85% 29.62 in 1.5 mi North 18.4 mph 26.5 mph N/A   Overcast
9:35 AM 6.8 °F -10.7 °F 1.4 °F 79% 29.61 in 1.8 mi North 15.0 mph 27.6 mph N/A   Overcast
9:55 AM 6.8 °F -11.8 °F 1.4 °F 79% 29.63 in 1.8 mi North 17.3 mph 24.2 mph N/A   Overcast
10:15 AM 5.0 °F -14.2 °F 1.4 °F 85% 29.65 in 1.8 mi North 17.3 mph 26.5 mph N/A   Overcast
10:55 AM 5.0 °F -11.6 °F 1.4 °F 85% 29.67 in 3.0 mi North 12.7 mph 21.9 mph N/A   Overcast
11:15 AM 5.0 °F -13.6 °F 1.4 °F 85% 29.67 in 0.8 mi North 16.1 mph - N/A   Overcast
11:35 AM 5.0 °F -13.0 °F 3.2 °F 92% 29.68 in 0.8 mi NNE 15.0 mph 23.0 mph N/A   Overcast
12:15 PM 5.0 °F -13.6 °F 3.2 °F 92% 29.69 in 0.8 mi North 16.1 mph 21.9 mph N/A   Overcast
12:35 PM 5.0 °F -13.0 °F 1.4 °F 85% 29.69 in 0.8 mi North 15.0 mph 24.2 mph N/A   Overcast
1:15 PM 5.0 °F -12.3 °F 3.2 °F 92% 29.69 in 1.0 mi North 13.8 mph 19.6 mph N/A   Overcast
1:55 PM 5.0 °F -14.2 °F 3.2 °F 92% 29.70 in 1.2 mi North 17.3 mph - N/A   Overcast
2:15 PM 6.8 °F -10.0 °F 3.2 °F 85% 29.71 in 1.0 mi North 13.8 mph - N/A   Overcast
2:35 PM 5.0 °F -14.2 °F 3.2 °F 92% 29.72 in 1.5 mi North 17.3 mph - N/A   Overcast
3:15 PM 5.0 °F -10.8 °F 3.2 °F 92% 29.74 in 1.2 mi North 11.5 mph - N/A   Overcast
3:35 PM 5.0 °F -11.6 °F 3.2 °F 92% 29.75 in 1.2 mi North 12.7 mph - N/A   Overcast
3:55 PM 5.0 °F -8.1 °F 1.4 °F 85% 29.76 in 2.0 mi NNE 8.1 mph 16.1 mph N/A   Overcast
4:15 PM 5.0 °F -10.0 °F 1.4 °F 85% 29.77 in 2.0 mi NNE 10.4 mph - N/A   Overcast
4:35 PM 5.0 °F -10.0 °F 1.4 °F 85% 29.79 in 1.8 mi NNE 10.4 mph - N/A   Overcast
4:55 PM 5.0 °F -11.6 °F 1.4 °F 85% 29.80 in 0.8 mi NNE 12.7 mph - N/A   Overcast
5:15 PM 3.2 °F -15.3 °F 1.4 °F 92% 29.81 in 0.8 mi NNE 15.0 mph - N/A   Overcast
5:55 PM 3.2 °F -13.1 °F 1.4 °F 92% 29.82 in 3.0 mi NNE 11.5 mph 17.3 mph N/A   Overcast
6:15 PM 3.2 °F -12.2 °F 1.4 °F 92% 29.84 in 3.0 mi NNE 10.4 mph - N/A   Overcast
6:35 PM 3.2 °F -9.1 °F 1.4 °F 92% 29.85 in 4.0 mi NNE 6.9 mph - N/A   Overcast
6:55 PM 3.2 °F -9.1 °F 3.2 °F 100% 29.87 in 4.0 mi NNE 6.9 mph - N/A   Overcast
7:15 PM 3.2 °F -6.2 °F 1.4 °F 92% 29.87 in 8.0 mi NNE 4.6 mph - N/A   Overcast
7:35 PM 3.2 °F -6.2 °F 3.2 °F 100% 29.89 in 3.0 mi NNE 4.6 mph - N/A   Overcast
7:55 PM 5.0 °F - 3.2 °F 92% 29.90 in 1.8 mi Calm Calm - N/A   Overcast
8:15 PM 5.0 °F - 3.2 °F 92% 29.90 in 2.0 mi Calm Calm - N/A   Overcast
8:35 PM 5.0 °F - 3.2 °F 92% 29.90 in 2.5 mi Calm Calm - N/A   Overcast
8:55 PM 5.0 °F -8.1 °F 3.2 °F 92% 29.91 in 1.8 mi NNE 8.1 mph - N/A   Overcast
9:15 PM 5.0 °F -10.0 °F 3.2 °F 92% 29.91 in 3.0 mi North 10.4 mph - N/A   Overcast
9:35 PM 5.0 °F -10.0 °F 3.2 °F 92% 29.91 in 2.5 mi North 10.4 mph - N/A   Overcast
9:55 PM 5.0 °F -10.0 °F 3.2 °F 92% 29.91 in 2.5 mi NW 10.4 mph - N/A   Overcast
10:35 PM 5.0 °F -6.9 °F 3.2 °F 92% 29.92 in 1.5 mi North 6.9 mph - N/A   Overcast
11:15 PM 3.2 °F -9.1 °F 1.4 °F 92% 29.93 in 2.5 mi North 6.9 mph - N/A   Overcast
11:35 PM 5.0 °F -6.9 °F 1.4 °F 85% 29.93 in 3.0 mi North 6.9 mph - N/A   Overcast
11:55 PM 3.2 °F -6.2 °F 1.4 °F 92% 29.94 in 2.5 mi North 4.6 mph - N/A   Overcast